Find Starlink 1702

NORAD ID: 46551 Int'l Des: 2020-070 Owner: SPXS Country: US Constellation: starlink decayed
LEOCIRCULAR

Re-entered — Mar 6, 2021

3D地球を読み込み中...

About Starlink 1702

Starlink 1702 (NORAD 46551) is a starlink constellation satellite (v1.0) launched Oct 6, 2020 by SPXS of US. It re-entered the atmosphere on Mar 6, 2021. with a mass of 260.00 kg.

高度履歴

Loading altitude history...

軌道要素

1 46551U 20070V 21065.92065322 .62648057 12504-4 77239-3 0 9998
2 46551 52.9647 46.1242 0010495 137.6549 320.6458 16.48963428 24699
Epoch: Mar 6, 2021 • Age: 48661 hours

現在のステータス

Position data unavailable
打ち上げ日 Oct 6, 2020
運用期間 5.9 years
落下予定日 Mar 6, 2021
タイプ internet

打ち上げグループ

Falcon 9 • Launch 12 • 4 satellites

技術仕様

分類 Payload
質量 260.00 kg
乾燥質量 248.00 kg
長さ 0.20 m
スパン 9.00 m
形状 ? Box + pan
製造者 SPXS
バスタイプ Starlink
フェーズステータス Reentered
所有者/国 SPXS/US

Most Searched